User: anonymous   Login
Location: Unspecified
(0.0000°N, 0.0000°E)
Time: 07:46:03
(UTC+00:00)
Language:

EGRS 7 - Orbit

View from above orbital plane
View from above orbital plane
View from above satellite
View from above satellite

Ground track
Ground track

The orbit data is extracted from the following two-line orbital elements,

1  2411U 66077B   18112.80323076 -.00000001 +00000-0 -12847-2 0  9993
2  2411 090.2052 247.3250 0025935 162.2328 197.9435 08.59618399621633
Epoch (UTC): 22 April 2018 19:16:39
Eccentricity: 0.0025935
inclination: 90.2052°
perigee height: 3662 km
apogee height: 3714 km
right ascension of ascending node: 247.3250°
argument of perigee: 162.2328°
revolutions per day: 8.59618399
mean anomaly at epoch: 197.9435°
orbit number at epoch: 62163

The dashed part of the orbit path shows where the satellite is in the earth's shadow,  

DLR